TimeCET,TemperatureF,Dew PointF,Humidity,Sea Level PressureIn,VisibilityMPH,Wind Direction,Wind SpeedMPH,Gust SpeedMPH,PrecipitationIn,Events,Conditions,WindDirDegrees,DateUTC
12:15 AM,32.0,21.2,64,29.86,6.2,NNE,3.5,-,N/A,,Scattered Clouds,20,2013-02-09 23:15:00
12:45 AM,32.0,21.2,64,29.86,6.2,NNE,3.5,-,N/A,,Scattered Clouds,30,2013-02-09 23:45:00
1:15 AM,32.0,21.2,64,29.86,6.2,NE,3.5,-,N/A,,Scattered Clouds,50,2013-02-10 00:15:00
1:45 AM,32.0,23.0,69,29.83,6.2,NNE,2.3,-,N/A,,Scattered Clouds,20,2013-02-10 00:45:00
2:15 AM,30.2,21.2,69,29.83,6.2,North,3.5,-,N/A,,Mostly Cloudy,360,2013-02-10 01:15:00
2:45 AM,30.2,23.0,75,29.86,6.2,ENE,4.6,-,N/A,,Mostly Cloudy,60,2013-02-10 01:45:00
3:15 AM,30.2,23.0,75,29.83,6.2,NNE,2.3,-,N/A,,Mostly Cloudy,20,2013-02-10 02:15:00
3:45 AM,30.2,23.0,75,29.83,6.2,NNE,2.3,-,N/A,,Mostly Cloudy,30,2013-02-10 02:45:00
4:15 AM,30.2,23.0,75,29.83,6.2,NE,2.3,-,N/A,,Mostly Cloudy,40,2013-02-10 03:15:00
4:45 AM,30.2,23.0,75,29.83,6.2,NNE,3.5,-,N/A,,Mostly Cloudy,30,2013-02-10 03:45:00
5:15 AM,30.2,23.0,75,29.83,6.2,ENE,4.6,-,N/A,,Scattered Clouds,60,2013-02-10 04:15:00
5:45 AM,30.2,23.0,75,29.83,6.2,ENE,3.5,-,N/A,,Scattered Clouds,60,2013-02-10 04:45:00
6:15 AM,28.4,23.0,80,29.86,6.2,NE,4.6,-,N/A,,Partly Cloudy,40,2013-02-10 05:15:00
6:45 AM,28.4,23.0,80,29.86,6.2,NE,3.5,-,N/A,,Partly Cloudy,50,2013-02-10 05:45:00
7:15 AM,28.4,23.0,80,29.86,6.2,NNE,3.5,-,N/A,,Partly Cloudy,30,2013-02-10 06:15:00
7:45 AM,28.4,23.0,80,29.86,6.2,NNE,3.5,-,N/A,,Partly Cloudy,30,2013-02-10 06:45:00
8:15 AM,30.2,24.8,80,29.86,6.2,NNE,3.5,-,N/A,,Partly Cloudy,30,2013-02-10 07:15:00
8:45 AM,30.2,24.8,80,29.86,6.2,NNE,5.8,-,N/A,,Partly Cloudy,20,2013-02-10 07:45:00
9:15 AM,32.0,24.8,75,29.86,6.2,NNE,5.8,-,N/A,,Partly Cloudy,30,2013-02-10 08:15:00
9:45 AM,33.8,24.8,70,29.86,6.2,NNE,5.8,-,N/A,,Partly Cloudy,30,2013-02-10 08:45:00
10:15 AM,35.6,24.8,65,29.86,6.2,North,6.9,-,N/A,,Partly Cloudy,10,2013-02-10 09:15:00
10:45 AM,37.4,24.8,60,29.86,6.2,North,6.9,-,N/A,,Partly Cloudy,10,2013-02-10 09:45:00
11:15 AM,39.2,23.0,52,29.89,6.2,North,6.9,-,N/A,,Partly Cloudy,360,2013-02-10 10:15:00
11:45 AM,41.0,21.2,45,29.89,6.2,NNW,4.6,-,N/A,,Partly Cloudy,340,2013-02-10 10:45:00
12:15 PM,41.0,19.4,42,29.89,6.2,North,4.6,-,N/A,,Partly Cloudy,10,2013-02-10 11:15:00
12:45 PM,41.0,15.8,36,29.89,6.2,NW,5.8,-,N/A,,Partly Cloudy,320,2013-02-10 11:45:00
1:15 PM,42.8,15.8,34,29.89,6.2,NNW,4.6,-,N/A,,Scattered Clouds,330,2013-02-10 12:15:00
1:45 PM,44.6,12.2,27,29.86,6.2,NNW,5.8,-,N/A,,Scattered Clouds,340,2013-02-10 12:45:00
2:15 PM,44.6,8.6,23,29.86,6.2,NNW,6.9,-,N/A,,Scattered Clouds,340,2013-02-10 13:15:00
2:45 PM,44.6,8.6,23,29.86,6.2,NNW,11.5,-,N/A,,Scattered Clouds,330,2013-02-10 13:45:00
3:15 PM,42.8,8.6,25,29.86,6.2,NW,8.1,-,N/A,,Partly Cloudy,320,2013-02-10 14:15:00
3:45 PM,44.6,5.0,20,29.86,6.2,NNW,9.2,-,N/A,,Partly Cloudy,340,2013-02-10 14:45:00
4:15 PM,44.6,5.0,20,29.86,6.2,NW,6.9,-,N/A,,Partly Cloudy,320,2013-02-10 15:15:00
4:45 PM,42.8,6.8,23,29.86,6.2,NW,6.9,-,N/A,,Partly Cloudy,310,2013-02-10 15:45:00
5:15 PM,41.0,6.8,24,29.86,6.2,NNW,4.6,-,N/A,,Partly Cloudy,330,2013-02-10 16:15:00
5:45 PM,41.0,10.4,29,29.89,6.2,North,2.3,-,N/A,,Partly Cloudy,360,2013-02-10 16:45:00
6:15 PM,39.2,10.4,31,29.89,-9999.0,NNE,2.3,-,N/A,,Clear,30,2013-02-10 17:15:00
6:45 PM,39.2,12.2,33,29.89,-9999.0,Calm,Calm,-,N/A,,Clear,0,2013-02-10 17:45:00
7:15 PM,37.4,15.8,41,29.89,-9999.0,SSW,2.3,-,N/A,,Clear,210,2013-02-10 18:15:00
7:45 PM,35.6,17.6,48,29.89,-9999.0,ESE,2.3,-,N/A,,Clear,120,2013-02-10 18:45:00
8:15 PM,35.6,19.4,52,29.89,-9999.0,ESE,3.5,-,N/A,,Clear,120,2013-02-10 19:15:00
8:45 PM,35.6,17.6,48,29.89,-9999.0,ESE,1.2,-,N/A,,Clear,120,2013-02-10 19:45:00
9:15 PM,35.6,17.6,48,29.89,6.2,Calm,Calm,-,N/A,,Partly Cloudy,0,2013-02-10 20:15:00
9:45 PM,33.8,17.6,52,29.89,6.2,SE,1.2,-,N/A,,Partly Cloudy,130,2013-02-10 20:45:00
10:15 PM,32.0,17.6,55,29.92,6.2,SE,2.3,-,N/A,,Partly Cloudy,130,2013-02-10 21:15:00
10:45 PM,32.0,19.4,60,29.92,6.2,SE,1.2,-,N/A,,Partly Cloudy,140,2013-02-10 21:45:00
11:15 PM,35.6,19.4,52,29.92,6.2,East,5.8,-,N/A,,Scattered Clouds,100,2013-02-10 22:15:00
11:45 PM,35.6,19.4,52,29.92,6.2,ESE,4.6,-,N/A,,Scattered Clouds,110,2013-02-10 22:45:00